Weather Service Report


760 
ASUS43 KLOT 250109
RWRIL 

ILLINOIS REGIONAL WEATHER ROUNDUP
NATIONAL WEATHER SERVICE CHICAGO/ROMEOVILLE IL
800 PM CDT WED MAY 24 2017

NOTE: "FAIR" INDICATES FEW OR NO CLOUDS BELOW 12,000 FEET WITH NO
SIGNIFICANT WEATHER AND/OR OBSTRUCTIONS TO VISIBILITY.

* THESE STATIONS ARE NOT UNDER NWS QUALITY CONTROL. THEY ALSO MAY NOT
  REPORT WEATHER SUCH AS PRECIPITATION OR FOG.

ILZ001-002-007-009-015-016-024-250200-
NORTHWEST ILLINOIS
  
CITY           SKY/WX    TMP DP  RH WIND       PRES   REMARKS
MOLINE         CLOUDY    62  50  64 N7        29.61S                  
STERLING*      CLOUDY    57  53  86 N9        29.62R                  
SAVANNA*       CLOUDY    58  52  79 N8        29.63S                  
$$

ILZ003-004-008-010-011-017-018-250200-
NORTH CENTRAL ILLINOIS
  
CITY           SKY/WX    TMP DP  RH WIND       PRES   REMARKS
ROCKFORD       CLOUDY    57  52  83 N12       29.62R                  
FREEPORT*      CLOUDY    55  51  87 N9        29.64S                  
ROCHELLE*      CLOUDY    57  54  89 N14       29.60S                  
DE KALB*       CLOUDY    59  53  81 N12       29.59S                  
PERU*          CLOUDY    57  53  84 N14       29.59R                  
$$

ILZ005-006-012>014-019>023-250200-
NORTHEAST ILLINOIS
  
CITY           SKY/WX    TMP DP  RH WIND       PRES   REMARKS
CHICAGO-OHARE  CLOUDY    59  50  72 N16G22    29.56R                  
CHICAGO-MIDWAY CLOUDY    54  50  86 N16       29.56R                  
AURORA         CLOUDY    60  53  77 N13       29.57R                  
LANSING*       LGT RAIN  50  50 100 N10G17    29.55S                  
JOLIET*        RAIN      60  54  80 NE6       29.56R                  
WAUKEGAN       CLOUDY    56  50  80 N13G26    29.56S                  
DUPAGE AIRPORT MOCLDY    59  53  80 N14       29.55S                  
KANKAKEE*      DRIZZLE   56  54  94 N5        29.54S                  
WHEELING       CLOUDY    57  52  83 N13G26    29.58R                  
MORRIS*        CLOUDY    60  54  78 N5        29.54S                  
ROMEOVILLE*    RAIN      56  55  94 NE8       29.56R                  
NORTHERLY ISL    N/A     49  47  93 N18         N/A                   
$$

LMZ740>746-250200-
SOUTHERN LAKE MICHIGAN
  
STATION/POSITION SKY/WX   TEMP    WIND        PRES    VSBY  WAVE
                          AIR SEA DIR/SP/G                  HT/PER
                          (F)     (DEG/KT/KT) (MB)    (MI)  (FT/S)
SOUTHERN BUOY              47 45   20/ 16/ 17 1000.9          4/ 5
WILMETTE HARBOR            47 53                N/A           6/ 5
HARRISON CRIB              49     350/ 23/ 24   N/A
BURNHAM HARBOR             49     340/ 13/ 20   N/A
CALUMET HARBOR             49     330/ 11/ 18 1000.6R
BURNS HARBOR               49     320/  8/ 10 1000.7S
MICHIGAN CITY              50     280/  5/  6   N/A
MICHIGAN CITY 6N           50 53  320/  6/ 10   N/A           4/ 5
ST. JOSEPH                 56 56  320/  4/  6  999.8          3/ 5
$$

ILZ025>027-034>036-040-047-049-050-058-095>099-250200-
WEST-CENTRAL ILLINOIS
  
CITY           SKY/WX    TMP DP  RH WIND       PRES   REMARKS
QUINCY         PTCLDY    58  53  84 NW10      29.60S                  
GALESBURG*     MOCLDY    57  52  82 N9        29.61R                  
MACOMB*        PTCLDY    58  53  82 N7        29.63R                  
JACKSONVILLE*  CLOUDY    58  55  88 NW8       29.59R                  
PITTSFIELD*    CLOUDY    60  53  77 NW6       29.61S                  
$$

ILZ028>032-037-038-041>044-048-051>054-059>061-250200-
CENTRAL ILLINOIS
  
CITY           SKY/WX    TMP DP  RH WIND       PRES   REMARKS
PONTIAC        CLOUDY    60  57  88 N9        29.56S                  
BLOOMINGTON    CLOUDY    58  54  86 N15       29.56R                  
DECATUR        CLOUDY    60  55  83 N12       29.53S                  
PEORIA         CLOUDY    59  54  83 N6        29.58R                  
LACON*         CLOUDY    58  54  86 N9        29.58R                  
LINCOLN*       CLOUDY    62  56  81 N9G17     29.56S                  
SPRINGFIELD    CLEAR     61  55  81 N13       29.57R                  
TAYLORVILLE    CLOUDY    59  56  90 NW9       29.55S                  
$$

ILZ033-039-045-046-055>057-062-063-250200-
EAST-CENTRAL ILLINOIS
  
CITY           SKY/WX    TMP DP  RH WIND       PRES   REMARKS
CHAMPAIGN      CLOUDY    59  54  83 N15       29.51S                  
RANTOUL*       LGT RAIN  60  58  94 N13G18    29.52S                  
MATTOON        CLOUDY    59  57  93 N12       29.50S                  
$$

ILZ079-100>102-250200-
SOUTHWEST ILLINOIS
  
CITY           SKY/WX    TMP DP  RH WIND       PRES   REMARKS
ALTON          MOCLDY    61  50  67 NW7       29.56S                  
BELLEVILLE     CLOUDY    62  51  66 NW7       29.57R                  
CAHOKIA*       MOCLDY    62  47  57 NW10      29.57S                  
SPARTA*        CLEAR     61  50  67 NW6       29.58R                  
$$

ILZ064>066-069>071-074>076-080>082-084>086-088>090-092>094-250200-
SOUTH-CENTRAL ILLINOIS
  
CITY           SKY/WX    TMP DP  RH WIND       PRES   REMARKS
CARBONDALE     CLOUDY    63  49  60 NW8       29.55R                  
CAIRO*         CLOUDY    63  49  61 W7        29.56S                  
EFFINGHAM*     CLOUDY    59  58  97 W7        29.53S                  
MARION         MOCLDY    63  54  72 CALM      29.56R                  
MT. VERNON     LGT RAIN  57  54  89 W3        29.55R                  
CENTRALIA*     CLOUDY    59  56  90 W7        29.54R                  
SALEM*         RAIN      61  54  77 NW8       29.55R                  
METROPOLIS*    PTCLDY    61  50  65 W3        29.56R                  
$$

ILZ067-068-072-073-078-083-087-091-250200-
SOUTHEAST ILLINOIS
  
CITY           SKY/WX    TMP DP  RH WIND       PRES   REMARKS
LAWRENCEVILLE  LGT RAIN  58  57  97 NW10      29.49S FOG              
FLORA*         RAIN      60  57  89 NW7       29.53S                  
FAIRFIELD*     RAIN      58  57  95 NW3       29.53R                  
HARRISBURG*    LGT RAIN  59  53  80 NW7       29.55R                  
ROBINSON*      LGT RAIN  57  56  95 NW8       29.50R                  
CARMI*         DRIZZLE   58  56  93 W8        29.53R                  
$$

ABBREVIATIONS USED IN REMARKS
   TC - TEMPERATURE IN CELSIUS
  WCI - WIND CHILL INDEX
   HX - HEAT INDEX
  VSB - VISIBILITY
$$

  

Return to Home page


Western Regional Climate Center, wrcc@dri.edu